Starlink 5583

decayed
NORAD ID: 55768 Int'l Des: 2023-028 Owner: SPXS Country: US Constellation: starlink
LEOCIRCULAR
Group

About Starlink 5583

Description loading...

Altitude History

Altitude vs Time

uPlot chart will show altitude changes over time

Two-Line Element Set

1 55768U 23028AD 25148.16817547 .17728541 44551-5 20454-3 0 9992
2 55768 70.0034 207.6086 0011728 250.8350 165.6182 16.49471904124166
Epoch: May 28, 2025 • Age: 4037 hours

Current Status

Position data unavailable
Launch Date Mar 3, 2023
Age 2.6 years
Decay Date May 28, 2025
Type internet

Technical Details

Classification Payload
Mass 305.00 kg
Dry Mass 290.00 kg
Total Mass 305.00 kg
Length 0.20 m
Diameter 2.80 m
Span 9.00 m
Shape Box + pan
Manufacturer SPXS
Bus Type Starlink
Phase Status Reentered
Owner/State SPXS/US

Large Constellations

Loading constellations...